Temperature
20 20 19 19 18 18 20 21 21 21 21 20 20 20 20 20 20 20 19 20 21 20 20 20 20 20 20 20 20 20 20 20 20 20 20 20 19 19 19 19 19 19 19 18 18 18 18 18 18
20 20 19 19 19 20 21 21 21 21 21 21 21 20 20 20 19 19 19 20 20 20 20 20 20 20 20 20 20 20 20 20 20 20 20 19 19 19 19 19 19 19 18 18 18 18 18 18 18
20 19 19 18 19 20 21 21 21 22 21 21 21 20 20 19 19 19 20 20 20 20 20 20 20 20 20 20 20 20 20 20 20 19 19 19 19 19 19 19 19 19 19 18 18 18 18 18 18
20 19 19 18 19 20 21 22 21 21 21 21 20 20 20 20 20 20 20 20 20 20 20 20 20 20 20 20 20 19 19 19 19 19 19 19 19 19 19 19 19 19 19 18 18 18 18 18 18
20 19 18 18 19 20 21 22 22 21 21 20 20 20 19 20 20 20 20 20 20 20 20 20 20 20 20 19 19 19 19 19 19 19 19 19 19 19 19 19 19 19 18 18 18 18 18 18 17
20 18 18 18 20 21 22 22 21 21 20 20 20 19 19 20 20 20 20 20 20 20 20 19 19 19 19 19 19 19 19 19 19 19 19 19 19 18 18 18 18 18 18 18 18 18 18 18 17
20 17 19 20 20 21 22 21 21 20 20 20 20 19 19 19 20 20 20 19 19 19 19 19 19 19 19 19 19 19 19 19 19 19 19 18 18 18 18 18 18 18 18 18 18 18 18 17 17
21 17 20 19 21 22 22 21 21 20 20 20 20 19 18 19 19 19 19 19 19 19 19 19 19 19 19 19 19 19 19 19 19 18 18 18 18 18 18 18 18 18 18 18 18 18 18 17 17
21 18 18 20 21 22 21 20 20 20 19 19 19 19 20 19 19 19 19 18 19 19 19 19 19 19 19 19 19 19 19 18 18 18 18 18 18 18 18 18 18 18 18 18 18 17 17 17 17
21 18 20 21 22 21 21 20 20 19 19 19 19 19 19 19 18 18 18 18 19 19 19 19 19 19 19 19 19 18 18 18 18 18 18 18 18 18 18 17 17 17 17 17 17 17 17 17 17
20 19 21 22 23 22 21 20 19 19 18 19 19 18 18 18 18 19 19 19 19 19 19 19 19 19 19 19 18 18 18 18 18 18 18 18 17 17 17 17 17 17 17 17 17 17 17 17 17
20 21 22 22 22 21 20 19 19 19 19 20 19 19 19 18 19 19 19 19 19 19 19 19 19 19 18 18 18 18 18 18 18 18 18 17 17 17 17 17 17 17 17 17 17 17 17 17 17
22 22 22 22 22 21 20 19 19 18 19 19 19 18 18 18 19 19 19 19 19 19 19 19 18 18 18 18 18 18 18 18 18 17 17 17 17 17 17 17 17 17 17 17 17 17 17 17 17
23 22 21 21 21 20 19 19 19 18 18 18 18 18 18 18 19 19 19 19 19 19 19 19 18 18 18 18 18 18 18 18 17 17 17 17 17 17 16 16 16 16 16 16 16 16 16 16 16
23 21 20 20 20 20 19 19 18 18 18 18 18 18 18 18 18 19 19 19 19 19 19 19 18 18 18 18 18 18 18 17 17 17 17 17 16 16 16 16 16 16 16 16 16 16 16 16 16
22 21 21 21 20 20 20 19 19 18 18 18 18 17 18 18 18 19 19 19 19 18 19 18 18 18 18 18 18 17 17 17 17 17 17 16 16 16 16 16 16 16 15 15 15 15 15 15 15
21 21 21 21 20 20 19 19 18 18 18 17 17 17 17 18 18 18 18 19 19 18 18 18 18 18 18 18 17 17 17 17 17 16 16 16 16 16 15 15 15 15 15 15 15 15 15 15 15
22 21 21 21 21 20 19 18 18 18 17 17 17 17 18 18 18 18 18 18 18 18 18 18 18 18 18 17 17 17 17 17 16 16 16 16 15 15 15 15 15 15 15 14 14 14 14 14 14
23 22 21 21 21 20 19 18 18 17 17 17 17 17 18 18 18 18 18 18 18 18 18 18 18 18 18 17 17 17 17 17 16 16 16 15 15 15 15 15 15 14 14 14 14 14 14 14 14
22 21 21 21 20 20 18 18 18 17 17 17 17 17 18 18 18 18 18 18 18 18 18 18 18 18 18 17 17 17 17 16 16 16 15 15 15 15 15 14 14 14 14 14 14 13 13 13 13
22 21 21 21 20 19 19 19 18 17 17 17 18 18 18 18 18 18 18 18 18 18 18 18 18 18 18 17 17 17 16 16 16 16 15 15 15 15 14 14 14 14 14 13 13 13 13 13 13
22 22 22 21 19 18 18 18 18 17 17 17 17 18 18 18 18 18 18 18 18 18 18 18 18 18 17 17 17 17 17 17 16 16 15 15 15 14 14 14 14 13 13 13 13 13 13 13 13
22 21 20 19 18 18 18 18 17 17 17 17 17 18 18 18 19 19 19 19 18 18 18 18 18 18 17 17 17 17 17 16 16 15 15 15 15 14 14 14 13 13 13 13 13 13 12 12 12
21 20 18 16 16 18 18 18 18 16 17 18 18 18 19 19 19 19 19 19 18 18 18 18 18 18 18 17 17 17 16 16 16 16 15 15 14 14 14 13 13 13 13 13 12 12 12 12 12
21 19 18 19 17 18 18 17 17 18 18 18 18 19 19 19 19 19 19 19 19 19 19 18 18 18 18 17 17 17 16 16 16 16 15 15 14 14 14 13 13 13 13 12 12 12 12 12 12
20 20 19 20 19 18 18 18 18 19 19 20 20 20 20 20 20 20 20 20 19 19 19 19 19 18 18 18 17 17 16 16 16 15 15 15 14 14 13 13 13 13 12 12 12 12 12 12 11
20 19 19 17 18 18 18 18 18 19 19 19 19 20 20 20 20 20 20 20 20 20 20 19 19 19 18 18 17 17 16 16 16 15 15 14 14 14 13 13 13 13 12 12 12 12 12 12 11
21 18 16 17 18 19 19 19 19 20 20 19 18 19 20 21 21 21 21 21 21 20 20 20 19 19 19 18 18 17 16 16 15 15 15 14 14 14 13 13 13 13 12 12 12 12 12 12 11
20 19 17 15 16 18 19 19 19 19 19 19 19 21 22 22 22 22 22 22 21 21 20 20 20 19 19 18 18 17 16 16 15 15 15 14 14 14 13 13 13 13 13 12 12 12 12 12 12
21 19 17 18 18 16 17 18 20 19 19 19 20 22 23 23 23 22 22 22 22 21 21 21 20 20 19 19 18 17 17 16 16 15 15 14 14 14 13 13 13 13 13 13 13 12 12 12 12
Wind_Speed
7 5 1 1 3 3 1 1 2 3 3 2 2 2 0 1 2 2 2 10 16 15 16 20 20 19 19 20 19 19 18 18 18 17 16 15 14 13 12 12 11 11 11 11 11 12 12 12 12
5 3 1 2 3 2 2 3 4 4 4 5 3 3 1 1 1 4 5 10 15 15 16 18 20 20 19 19 18 18 17 17 16 15 15 14 13 12 12 11 11 10 10 10 11 11 11 11 11
4 1 3 3 2 2 3 3 5 4 4 3 3 2 1 2 4 5 7 13 13 13 15 18 21 20 19 18 17 17 17 16 15 14 13 12 12 11 11 10 9 9 9 10 10 10 10 10 10
3 3 4 3 2 4 4 4 6 6 2 2 3 3 1 1 3 7 14 14 14 11 14 18 20 19 18 17 17 16 16 15 14 13 12 11 11 10 10 9 9 8 8 8 9 8 8 8 8
3 3 4 2 4 4 3 4 7 6 4 3 3 2 1 3 8 14 15 14 13 10 12 17 20 19 18 17 17 16 15 14 14 13 12 11 10 9 9 8 8 7 7 7 7 7 7 6 6
4 4 3 2 5 4 2 2 4 3 3 3 4 3 1 4 11 13 13 12 11 11 11 15 18 18 18 17 16 15 15 14 13 12 11 10 9 8 8 7 7 6 6 6 5 5 5 4 4
4 4 2 3 4 3 1 1 3 4 4 4 3 4 2 5 8 11 12 11 9 9 9 10 14 16 17 16 16 15 14 13 13 12 11 10 9 8 7 6 6 5 5 5 5 4 3 2 2
4 4 1 3 4 4 1 1 1 3 3 2 2 5 5 6 10 11 11 10 9 8 7 7 10 12 13 14 15 15 14 13 12 11 10 9 8 7 7 6 5 5 5 5 4 3 3 2 1
4 3 3 5 5 4 4 3 1 1 2 1 1 2 5 13 14 13 12 10 9 8 6 6 7 9 10 11 13 13 13 12 11 10 10 8 6 5 4 5 6 6 5 5 4 3 2 1 1
4 3 7 6 5 4 5 4 4 3 2 1 2 3 11 15 14 14 14 13 12 10 8 6 6 7 8 9 9 9 9 9 8 7 6 6 5 3 3 3 4 4 5 4 4 3 2 2 2
7 7 5 4 3 4 4 3 3 4 3 4 6 11 14 14 13 12 12 10 9 8 8 7 6 6 6 5 7 6 6 7 6 6 6 6 4 2 1 1 1 1 1 1 1 1 1 1 1
5 6 4 3 1 3 4 4 2 3 3 2 6 11 13 14 13 12 11 9 7 7 7 7 6 5 6 6 6 6 5 5 5 5 6 5 3 2 1 1 1 1 1 1 1 0 1 1 1
5 3 1 0 2 3 4 3 2 2 0 5 8 10 12 12 9 8 8 8 7 7 6 6 7 6 5 4 4 5 5 5 6 6 6 6 4 2 2 2 2 2 2 1 1 0 1 1 1
3 1 0 2 2 2 4 2 1 2 2 5 7 7 9 10 10 8 7 7 7 7 6 6 6 5 5 4 3 4 6 7 7 7 6 6 5 4 3 2 2 2 2 1 1 1 0 1 1
1 1 3 1 1 1 4 1 2 2 4 5 5 6 6 6 8 10 8 7 7 7 7 6 6 5 5 5 4 5 7 8 6 6 7 7 6 5 4 3 2 2 3 3 3 2 2 1 1
2 2 2 3 2 2 4 4 2 3 5 5 5 5 5 5 6 6 7 7 6 7 7 7 7 7 6 5 5 5 7 7 6 6 7 7 7 7 5 3 2 3 4 4 2 2 2 2 2
4 2 4 3 2 3 4 4 2 3 4 4 5 6 6 6 5 4 6 7 7 8 9 8 7 7 6 5 5 5 6 6 6 6 6 6 7 7 6 4 3 4 4 3 2 2 1 1 2
5 5 4 4 2 3 3 3 2 3 4 5 5 5 6 8 7 6 6 7 7 7 8 9 8 7 7 5 4 4 4 3 4 5 5 6 6 7 7 5 5 5 4 3 3 3 3 1 2
5 5 6 4 1 3 3 3 3 4 4 5 5 5 6 7 6 7 8 8 8 7 7 8 8 7 7 4 4 4 3 2 2 3 4 5 6 6 6 4 4 3 3 3 2 2 3 3 2
5 5 4 2 1 2 0 3 2 4 5 5 6 7 8 7 6 6 7 7 8 8 8 8 8 8 7 5 4 3 4 3 2 2 3 4 5 5 5 5 3 3 3 3 3 2 2 2 3
4 5 5 4 2 4 2 4 2 2 2 3 4 5 7 9 9 9 8 8 8 9 10 10 8 8 7 6 5 5 4 4 2 1 1 1 3 4 5 5 4 3 3 3 2 2 3 1 2
5 4 4 4 3 2 2 3 5 3 3 4 6 5 7 7 8 9 10 9 9 9 8 8 8 7 7 7 7 7 5 4 4 3 2 1 2 3 5 5 5 4 3 3 2 2 2 2 1
3 4 5 4 4 2 2 1 7 1 4 7 7 8 8 8 9 10 10 10 9 8 8 7 7 7 6 7 8 7 5 3 3 2 2 1 1 1 4 5 5 4 2 2 2 2 2 1 1
6 6 7 6 5 2 2 1 6 5 7 6 7 9 10 10 10 9 8 8 7 7 7 8 8 7 6 7 7 8 8 6 5 4 3 2 1 0 2 4 4 4 3 3 2 2 2 2 2
4 6 4 5 4 5 2 2 8 7 7 9 10 11 10 10 10 10 10 10 10 10 9 9 9 8 7 8 7 8 8 8 7 6 5 4 2 2 3 3 3 3 3 3 3 2 2 2 2
5 7 6 4 4 5 2 5 7 5 5 7 8 9 9 10 10 11 12 12 12 12 11 11 11 9 8 8 8 7 7 6 5 5 5 5 4 3 3 3 3 3 3 3 3 2 2 2 3
7 4 5 6 2 2 5 7 8 2 2 5 7 9 10 11 12 12 12 12 12 12 12 12 12 10 10 9 8 7 7 7 6 5 5 4 3 3 4 4 3 3 3 3 3 2 2 2 3
5 9 6 5 4 3 6 5 5 6 6 6 8 10 11 11 12 12 12 13 12 12 11 10 11 11 10 10 9 8 8 7 6 6 6 5 5 4 4 4 4 3 3 3 3 3 3 3 3
5 5 5 5 5 6 3 7 7 10 10 10 11 11 12 13 13 13 13 12 11 10 10 10 11 10 9 10 9 8 8 7 6 6 6 6 5 5 5 5 5 4 4 4 3 4 4 4 4
4 7 8 5 5 5 4 8 7 8 9 10 11 11 10 11 12 11 11 10 10 11 11 11 11 11 11 11 9 9 8 7 7 7 7 6 6 6 6 5 5 5 5 4 5 5 4 5 5
Wind_Direction
161 153 127 79 61 49 295 229 148 165 158 155 120 111 135 257 235 259 94 139 137 143 153 153 149 145 139 135 132 130 129 127 127 127 128 129 129 128 127 125 122 121 120 116 112 111 111 110 110
142 146 83 62 79 35 285 197 172 188 177 164 142 117 121 218 110 112 127 140 139 143 149 152 152 147 143 139 137 135 133 132 132 132 133 133 132 131 129 126 124 123 121 119 116 116 115 114 112
153 153 87 70 91 195 235 195 187 169 164 152 132 115 142 174 144 138 145 141 137 140 148 156 154 150 146 143 142 140 139 139 139 139 138 138 137 135 132 130 128 127 124 122 120 118 117 116 115
128 61 57 64 268 242 225 205 176 156 154 128 131 119 91 36 141 139 139 140 137 139 149 158 155 153 150 148 147 145 146 146 145 145 145 144 142 142 140 137 133 130 128 126 124 123 120 118 118
70 81 57 6 271 261 241 200 174 165 159 134 125 108 36 18 112 131 139 142 141 141 150 158 157 156 154 153 152 151 150 151 150 150 152 151 150 148 146 144 141 136 133 132 129 126 124 122 120
62 68 76 290 274 276 279 195 164 152 155 146 140 129 68 107 127 136 140 142 144 144 146 156 159 159 158 157 157 156 156 155 155 157 159 159 159 158 152 153 154 151 148 145 140 136 132 127 119
110 104 176 240 269 280 245 124 164 162 162 164 154 130 125 141 138 137 137 137 139 139 138 146 157 161 161 161 161 160 160 160 162 165 165 165 167 167 166 169 170 168 165 164 159 154 146 139 126
138 109 276 255 247 256 182 137 158 158 163 151 157 159 172 158 134 131 131 135 138 134 132 136 146 153 158 163 164 164 166 167 168 171 172 173 177 176 178 180 186 188 190 189 184 184 176 173 169
120 80 247 233 222 235 165 162 163 82 135 148 175 170 152 141 136 136 137 138 145 147 138 136 140 145 150 158 167 168 169 171 173 176 178 177 175 175 186 196 202 205 206 206 203 209 205 221 265
128 177 233 226 212 203 174 174 173 147 164 186 151 128 137 144 146 150 152 157 160 162 159 149 144 146 149 160 161 160 159 164 167 170 169 164 164 174 187 210 215 217 218 219 215 226 244 263 280
175 207 242 257 228 175 156 159 160 148 208 216 178 156 148 149 152 156 157 161 165 166 165 159 155 154 156 152 150 150 148 153 157 161 155 148 143 155 161 152 283 290 235 213 226 241 276 255 278
194 247 240 258 177 141 149 147 152 195 222 177 152 149 148 156 161 160 162 163 159 163 169 158 159 160 166 159 156 152 148 150 150 156 154 142 129 111 98 102 71 51 79 99 91 46 312 326 312
209 248 276 237 103 116 110 122 162 219 192 111 128 141 150 159 157 158 162 161 159 166 172 166 167 172 166 155 157 154 152 151 149 144 143 140 132 128 114 88 60 46 60 94 98 19 345 2 331
224 193 54 49 85 113 126 114 115 238 137 120 127 138 155 159 158 155 163 165 163 167 171 165 164 167 157 155 158 152 151 144 139 138 139 134 131 132 121 98 82 72 73 97 108 98 49 350 334
97 67 360 23 101 126 104 8 244 182 145 146 152 151 149 164 166 163 170 168 164 169 167 164 161 154 154 156 157 149 146 142 138 140 140 136 134 131 117 103 87 68 69 87 85 63 52 24 351
62 62 320 271 169 167 151 248 249 141 151 171 172 164 155 164 170 156 154 153 157 163 164 168 168 159 155 149 145 145 144 140 141 140 138 137 135 131 118 105 81 72 74 73 76 57 46 19 358
23 322 282 285 198 171 180 247 266 162 170 190 184 173 159 159 169 163 152 157 161 168 163 161 155 154 151 141 135 132 132 134 136 134 135 138 138 135 124 112 96 92 80 68 76 65 60 24 349
265 269 268 261 218 157 188 250 250 193 197 208 198 183 171 173 174 168 158 161 158 161 156 154 152 149 140 127 112 102 103 107 119 131 141 142 138 135 121 104 95 93 85 69 66 70 53 36 341
239 247 263 267 181 154 207 248 230 204 210 213 202 196 194 181 169 163 163 158 152 152 154 156 154 153 146 140 137 132 137 131 123 147 158 152 146 142 124 111 101 96 92 85 79 85 58 29 2
230 251 254 283 95 118 211 284 256 205 214 213 205 203 198 174 164 168 161 157 160 164 165 165 165 162 162 155 142 133 127 124 122 130 148 161 160 157 143 134 127 117 104 87 70 80 81 30 24
235 210 219 200 84 50 27 328 275 243 226 224 225 207 185 180 177 175 169 165 165 171 173 176 172 166 163 147 121 102 85 76 84 112 160 177 179 178 159 151 142 134 127 124 108 99 107 80 23
248 240 172 138 114 325 29 292 280 243 248 232 223 202 191 187 180 178 176 175 178 177 172 170 169 164 160 152 150 148 153 164 184 175 170 150 163 175 170 160 153 146 141 138 137 122 119 124 69
180 72 88 95 109 27 10 210 286 274 244 239 220 203 196 190 187 186 184 183 180 174 171 169 164 164 162 160 158 151 150 156 143 137 145 143 119 160 168 165 160 155 153 153 140 131 135 141 157
125 76 61 56 67 339 274 192 281 234 217 218 210 200 196 190 189 192 186 174 175 172 170 166 167 173 166 161 161 163 161 157 152 162 169 172 166 187 177 174 171 170 171 176 174 166 164 171 170
94 91 26 353 2 267 254 228 254 247 220 202 198 199 194 189 187 185 182 182 184 183 180 173 175 179 173 168 170 173 169 166 173 176 181 177 180 196 202 177 177 183 194 194 182 180 196 193 193
175 146 160 211 242 283 302 249 256 258 230 203 196 192 184 186 190 191 192 192 192 190 184 180 184 184 178 176 180 175 168 169 177 179 177 184 192 199 197 186 191 202 205 199 187 198 217 210 217
141 169 156 130 139 304 288 285 301 256 221 198 194 191 194 195 195 199 199 197 195 192 190 188 187 186 184 183 177 174 174 177 180 177 174 180 190 196 193 194 198 209 209 203 189 213 232 225 233
136 141 108 121 147 262 294 283 254 243 220 203 198 202 204 198 198 203 203 202 200 196 191 185 187 191 186 181 181 185 184 184 178 172 183 191 196 193 188 200 206 213 215 208 201 221 232 231 244
123 114 112 119 150 163 250 274 228 213 204 201 207 207 204 200 201 203 205 203 196 190 185 186 188 185 183 185 184 180 184 183 179 186 196 196 197 197 203 209 212 220 224 219 213 232 233 236 249
167 166 149 155 203 177 189 266 266 219 211 201 209 211 208 205 204 201 200 194 188 189 188 189 189 189 191 186 182 185 183 179 186 198 202 198 204 207 209 210 217 226 228 223 223 240 241 240 251
Height
1512 1513 1514 1516 1518 1524 1524 1518 1513 1513 1512 1511 1512 1513 1515 1516 1519 1522 1516 1517 1521 1525 1529 1533 1537 1539 1542 1544 1546 1547 1549 1550 1551 1552 1553 1554 1555 1556 1557 1558 1558 1559 1559 1560 1560 1560 1561 1561 1562
1512 1513 1515 1516 1521 1530 1525 1514 1513 1510 1508 1508 1509 1511 1512 1513 1514 1514 1514 1518 1523 1526 1530 1534 1537 1540 1543 1545 1547 1549 1550 1552 1553 1554 1555 1556 1557 1558 1558 1559 1560 1560 1561 1561 1562 1562 1563 1563 1564
1512 1514 1516 1517 1523 1527 1520 1511 1509 1507 1507 1507 1508 1510 1512 1512 1512 1513 1514 1519 1524 1528 1531 1535 1538 1541 1544 1546 1548 1550 1551 1553 1554 1555 1556 1557 1558 1559 1560 1561 1561 1562 1562 1563 1564 1564 1564 1565 1566
1513 1515 1516 1521 1523 1516 1510 1507 1505 1506 1507 1507 1508 1510 1511 1512 1511 1513 1515 1520 1525 1529 1533 1536 1539 1542 1545 1547 1550 1551 1552 1554 1555 1556 1557 1558 1559 1560 1561 1562 1563 1563 1564 1565 1565 1566 1566 1567 1568
1513 1515 1520 1526 1521 1511 1505 1504 1504 1505 1506 1508 1509 1510 1511 1512 1512 1514 1517 1521 1526 1530 1534 1537 1540 1543 1546 1548 1550 1552 1553 1555 1556 1557 1558 1559 1560 1561 1562 1563 1564 1565 1565 1566 1567 1567 1568 1568 1569
1514 1515 1527 1529 1519 1509 1504 1503 1504 1504 1506 1507 1508 1510 1511 1512 1513 1516 1519 1523 1527 1531 1535 1538 1541 1544 1546 1549 1551 1552 1554 1555 1557 1558 1559 1560 1561 1562 1563 1564 1565 1566 1566 1567 1568 1568 1569 1570 1570
1515 1519 1524 1522 1517 1510 1505 1503 1504 1503 1504 1506 1507 1509 1510 1512 1515 1517 1520 1524 1529 1532 1535 1538 1542 1545 1547 1549 1551 1553 1554 1556 1557 1559 1560 1561 1562 1563 1564 1565 1566 1566 1567 1568 1569 1569 1570 1571 1571
1514 1518 1521 1521 1516 1510 1504 1504 1503 1503 1504 1505 1506 1508 1509 1512 1514 1517 1521 1525 1529 1533 1536 1539 1542 1545 1547 1549 1551 1553 1555 1556 1558 1559 1560 1561 1562 1563 1564 1565 1566 1567 1568 1569 1569 1570 1570 1571 1572
1514 1521 1525 1517 1512 1506 1503 1504 1504 1504 1504 1505 1505 1506 1507 1510 1514 1517 1521 1525 1529 1533 1536 1539 1542 1545 1547 1550 1552 1553 1555 1556 1558 1559 1561 1562 1562 1563 1564 1565 1566 1567 1568 1569 1569 1570 1570 1571 1572
1513 1521 1514 1505 1502 1501 1501 1502 1503 1503 1504 1504 1505 1505 1507 1509 1513 1517 1520 1523 1527 1531 1535 1539 1542 1545 1548 1550 1552 1553 1555 1556 1558 1559 1561 1562 1563 1563 1564 1565 1566 1567 1567 1568 1569 1569 1570 1570 1571
1509 1511 1503 1500 1498 1499 1500 1502 1502 1503 1504 1502 1502 1503 1506 1508 1512 1516 1520 1523 1527 1531 1534 1538 1542 1545 1547 1549 1552 1553 1555 1556 1558 1559 1560 1561 1562 1563 1564 1564 1565 1566 1566 1567 1567 1568 1569 1569 1570
1506 1502 1501 1498 1498 1498 1500 1501 1503 1503 1502 1501 1502 1503 1506 1508 1511 1515 1519 1523 1528 1531 1535 1538 1541 1545 1547 1550 1552 1553 1555 1556 1558 1559 1560 1561 1562 1563 1563 1564 1564 1565 1565 1566 1566 1567 1567 1568 1568
1503 1501 1499 1498 1498 1499 1500 1502 1502 1502 1502 1502 1503 1505 1507 1510 1512 1516 1520 1523 1527 1530 1535 1538 1542 1544 1547 1549 1551 1553 1554 1556 1557 1559 1560 1561 1561 1562 1562 1562 1563 1563 1564 1564 1565 1565 1565 1566 1566
1500 1500 1499 1499 1498 1500 1501 1503 1503 1502 1503 1503 1504 1506 1508 1510 1513 1516 1520 1523 1527 1531 1534 1538 1542 1544 1546 1548 1551 1553 1554 1555 1557 1558 1559 1560 1560 1560 1561 1561 1562 1562 1562 1562 1563 1563 1563 1564 1564
1500 1501 1501 1500 1500 1501 1503 1505 1503 1502 1503 1504 1506 1507 1509 1511 1513 1516 1519 1523 1526 1530 1534 1537 1541 1544 1546 1548 1551 1553 1554 1555 1556 1557 1558 1559 1559 1560 1560 1560 1560 1560 1561 1561 1561 1561 1562 1562 1562
1500 1505 1508 1502 1500 1501 1506 1509 1502 1502 1502 1504 1506 1507 1509 1510 1513 1516 1519 1523 1526 1530 1533 1537 1541 1543 1545 1548 1550 1552 1553 1554 1555 1556 1557 1558 1559 1559 1559 1559 1559 1559 1559 1559 1560 1560 1560 1560 1561
1507 1512 1509 1504 1500 1501 1504 1507 1502 1502 1502 1504 1506 1507 1509 1511 1514 1516 1519 1522 1526 1530 1533 1536 1539 1542 1545 1547 1549 1551 1552 1553 1555 1556 1557 1558 1558 1559 1558 1558 1558 1558 1558 1558 1558 1559 1559 1559 1559
1512 1510 1508 1505 1500 1501 1504 1504 1501 1501 1502 1503 1504 1506 1508 1510 1512 1515 1518 1522 1525 1529 1532 1536 1539 1541 1543 1546 1548 1550 1551 1553 1554 1555 1556 1557 1558 1558 1558 1558 1557 1557 1557 1557 1558 1558 1558 1558 1558
1500 1505 1507 1502 1498 1501 1503 1503 1501 1501 1501 1502 1503 1504 1506 1508 1512 1515 1518 1521 1525 1528 1531 1535 1538 1540 1542 1545 1547 1549 1550 1552 1553 1555 1556 1557 1557 1557 1557 1557 1557 1557 1557 1557 1557 1557 1557 1556 1556
1499 1505 1505 1501 1498 1501 1504 1504 1500 1500 1500 1501 1501 1503 1505 1507 1510 1514 1517 1520 1523 1527 1531 1534 1537 1539 1541 1544 1546 1548 1550 1552 1553 1554 1555 1556 1557 1557 1557 1557 1556 1556 1556 1556 1556 1556 1556 1555 1555
1498 1501 1501 1502 1501 1502 1505 1506 1502 1500 1499 1500 1500 1501 1503 1506 1508 1511 1515 1519 1523 1526 1529 1533 1536 1538 1541 1543 1546 1548 1549 1551 1552 1553 1554 1555 1556 1556 1556 1556 1556 1556 1556 1556 1555 1555 1555 1555 1554
1499 1491 1494 1499 1508 1514 1511 1520 1505 1501 1500 1499 1499 1500 1502 1505 1508 1510 1514 1517 1521 1525 1529 1532 1535 1538 1540 1543 1545 1546 1548 1549 1551 1552 1553 1554 1555 1555 1555 1556 1555 1555 1555 1555 1555 1554 1554 1554 1553
1492 1491 1496 1502 1509 1516 1514 1519 1512 1502 1501 1498 1497 1498 1500 1503 1506 1509 1512 1516 1520 1524 1528 1532 1535 1537 1540 1542 1544 1545 1547 1548 1550 1551 1552 1552 1553 1554 1554 1554 1555 1555 1554 1554 1554 1553 1553 1553 1552
1490 1496 1503 1511 1517 1525 1515 1520 1514 1503 1496 1493 1493 1496 1498 1502 1505 1509 1512 1516 1520 1523 1527 1530 1533 1536 1538 1540 1542 1544 1546 1547 1548 1549 1550 1551 1551 1552 1553 1553 1553 1553 1553 1553 1553 1552 1552 1551 1551
1492 1506 1524 1524 1532 1527 1515 1517 1511 1491 1487 1487 1489 1492 1495 1499 1503 1507 1510 1514 1518 1521 1525 1528 1531 1534 1536 1539 1541 1543 1544 1545 1546 1547 1548 1548 1549 1550 1551 1551 1552 1552 1552 1552 1551 1551 1551 1550 1550
1493 1501 1521 1529 1532 1526 1515 1516 1498 1484 1482 1484 1486 1489 1493 1496 1500 1504 1507 1512 1515 1519 1523 1526 1529 1532 1535 1537 1539 1541 1542 1544 1544 1545 1546 1546 1547 1548 1549 1549 1550 1550 1550 1550 1550 1549 1549 1548 1548
1493 1499 1501 1517 1522 1526 1519 1507 1491 1481 1481 1482 1484 1487 1490 1493 1497 1501 1505 1509 1513 1516 1520 1523 1526 1529 1532 1534 1537 1539 1540 1541 1542 1543 1543 1544 1545 1546 1546 1547 1547 1548 1548 1548 1548 1547 1547 1547 1546
1482 1493 1507 1517 1527 1529 1517 1510 1502 1485 1481 1480 1482 1483 1486 1490 1494 1498 1502 1506 1510 1513 1517 1521 1524 1527 1529 1532 1534 1536 1538 1539 1540 1541 1541 1542 1543 1543 1544 1545 1545 1546 1546 1546 1545 1545 1544 1544 1544
1488 1495 1503 1514 1517 1527 1526 1512 1480 1477 1475 1476 1477 1479 1482 1486 1489 1493 1498 1502 1506 1510 1514 1517 1520 1523 1526 1529 1531 1534 1535 1537 1537 1538 1539 1540 1540 1541 1542 1543 1543 1543 1543 1543 1543 1542 1542 1542 1541
1479 1486 1498 1508 1513 1519 1521 1508 1469 1469 1469 1471 1473 1475 1479 1482 1486 1490 1494 1499 1503 1506 1510 1513 1516 1519 1522 1525 1528 1530 1532 1534 1535 1536 1537 1537 1538 1539 1540 1540 1540 1541 1541 1540 1540 1540 1539 1539 1538